This demonstration page uses our WeatherBlox Daily Observations layout. Learn more.

Left ArrowRight Arrow

39.29038, -76.61219

Hourly Observations for June 23, 2020

Temp ( °F °C ) Dew Point ( °F °C ) Humidity (%) Winds ( mph kmh ) Pressure ( in mb ) Visibility ( mi km ) Precip ( " mm )
12:54 am 00:54 Mostly Cloudy 71 21.7 66 18.9 84 84 Calm 29.86 1011 10 16 0.00 0.00
1:54 am 01:54 Mostly Cloudy 69 20.6 66 18.9 90 90 Calm 29.86 1011 10 16 0.00 0.00
2:54 am 02:54 Partly Cloudy 69 20.6 65 18.3 87 87 Calm 29.85 1011 10 16 0.00 0.00
3:54 am 03:54 Partly Cloudy 68 20 65 18.3 90 90 Calm 29.84 1011 10 16 0.00 0.00
4:54 am 04:54 Partly Cloudy 69 20.6 65 18.3 87 87 Calm 29.83 1010 10 16 0.00 0.00
5:54 am 05:54 Partly Cloudy 66 18.9 64 17.8 93 93 Calm 29.83 1010 7 11 0.00 0.00
6:54 am 06:54 Partly Cloudy 70 21.1 66 18.9 87 87 Calm 29.82 1010 10 16 0.00 0.00
7:54 am 07:54 Mostly Cloudy 74 23.3 68 20 82 82 SSW 3 6 29.83 1010 10 16 0.00 0.00
8:54 am 08:54 Mostly Cloudy 77 25 68 20 74 74 SE 5 7 29.82 1010 10 16 0.00 0.00
9:54 am 09:54 Mostly Cloudy 80 26.7 68 20 67 67 VRB 3 6 29.80 1009 10 16 0.00 0.00
10:54 am 10:54 Mostly Cloudy 83 28.3 70 21.1 65 65 SE 5 7 29.79 1009 10 16 0.00 0.00
11:54 am 11:54 Mostly Cloudy 85 29.4 70 21.1 61 61 ESE 5 7 29.79 1009 10 16 0.00 0.00
12:54 pm 12:54 Mostly Cloudy 86 30 72 22.2 63 63 S 8 13 29.77 1008 10 16 0.00 0.00
1:54 pm 13:54 Mostly Cloudy 88 31.1 71 21.7 57 57 SSE 6 9 29.74 1007 10 16 0.00 0.00
2:54 pm 14:54 Mostly Cloudy 89 31.7 73 22.8 59 59 SSE 10 17 29.71 1006 10 16 0.00 0.00
3:54 pm 15:54 Mostly Cloudy 87 30.6 73 22.8 63 63 SE 9 15 29.69 1005 10 16 0.00 0.00
4:54 pm 16:54 Mostly Cloudy 85 29.4 73 22.8 68 68 SSE 9 15 29.67 1005 10 16 0.00 0.00
5:50 pm 17:50 Mostly Cloudy with Thunderstorms 84 29 73 23 70 70 SSE 15 24 29.66 1004 6 10 0.00 0.00
5:54 pm 17:54 Mostly Cloudy with Strong Thunderstorms 83 28.3 75 23.9 77 77 ESE 9 15 29.67 1005 1 2 0.07 1.78
6:01 pm 18:01 Mostly Cloudy with Thunderstorms 82 27.8 75 23.9 79 79 SE 8 13 29.65 1004 7 11 0.13 3.30
6:54 pm 18:54 Mostly Cloudy with Thunderstorms 80 26.7 72 22.2 76 76 SE 5 7 29.65 1004 10 16 0.14 3.56
7:22 pm 19:22 Mostly Cloudy 81 27.2 74 23.3 79 79 ENE 3 6 29.65 1004 10 16 0.00 0.00
7:54 pm 19:54 Mostly Cloudy 80 26.7 73 22.8 79 79 Calm 29.66 1005 10 16 0.00 0.00
8:54 pm 20:54 Partly Cloudy 79 26.1 75 23.9 88 88 SE 3 6 29.66 1004 10 16 0.00 0.00
9:54 pm 21:54 Mostly Cloudy 79 26.1 73 22.8 82 82 SSW 3 6 29.65 1004 10 16 0.00 0.00
10:54 pm 22:54 Mostly Cloudy 79 26.1 70 21.1 74 74 SW 5 7 29.67 1005 10 16 0.00 0.00
11:54 pm 23:54 Mostly Cloudy 77 25 70 21.1 79 79 WNW 8 13 29.69 1005 10 16 0.00 0.00

Powered by AerisWeather